Location: Carabito
(9.8355°N, 67.9249°W)
Time: 12:12:44
(UTC+00:00)

Delta 7925 Rocket - Pass Details

Date: 23 May 2024
Orbit: 645 x 1644 km, 26.3° (Epoch: 20 June)

Event Time Altitude Azimuth Distance (km) Brightness Sun altitude
Rises 00:15:21 0° 241° (WSW) 3,329 7.3 -20.8°
Reaches altitude 10° 00:18:02 10° 240° (WSW) 2,278 6.4 -21.3°
Maximum altitude 00:23:15 80° 154° (SSE) 686 3.1 -22.5°
Enters shadow 00:24:04 60° 82° (E) 758 3.2 -22.7°
